Change the Weather History Date:

Friday, August 9, 2013

  Actual Average Record
Temperature  
Mean Temperature 53 °F -  
Max Temperature 75 °F 77 °F 95 °F (2000)
Min Temperature 31 °F 50 °F 31 °F (2013)
Degree Days  
Heating Degree Days 12    
Growing Degree Days 3 (Base 50)    
Moisture  
Dew Point 47 °F    
Average Humidity 69    
Maximum Humidity 100    
Minimum Humidity 39    
Precipitation  
Precipitation 0.08 in 0.04 in - ()
Sea Level Pressure  
Sea Level Pressure 30.14 in    
Wind  
Wind Speed 6 mph ()    
Max Wind Speed 21 mph    
Max Gust Speed -    
Visibility 9.0 miles    
Events      
Averages and records for this station are not official NWS values.
T = Trace of Precipitation, MM = Missing Value Source: Averaged Metar Reports

Daily Weather History Graph

Daily Weather History Graph

Search for Another Location

Airport or City:

Trip Planner

Search our weather history database for the weather conditions in past years. The results will help you decide how hot, cold, wet, or windy it might be!

Date:

Astronomy

Aug. 09, 2013 Rise Set
Actual Time 6:04 AM MDT 8:51 PM MDT
Civil Twilight 5:27 AM MDT 9:28 PM MDT
Nautical Twilight 4:39 AM MDT 10:15 PM MDT
Astronomical Twilight 3:41 AM MDT 11:12 PM MDT
Moon 9:17 AM MDT (8/9) 9:36 PM MDT (8/9)
Length of Visible Light 16h 01m
Length of Day
14h 47m
Waxing Crescent, 8% of the Moon is Illuminated
Aug 9
Waxing Crescent
Aug 14
First Quarter
Aug 20
Full
Aug 28
Last Quarter
Sep 5
New

Hourly Weather History & Observations

Time (MDT) Temp. Dew Point Humidity Pressure Visibility Wind Dir Wind Speed Gust Speed Precip Events Conditions
12:00 AM 36 °F 27 °F 60% 29.93 in - South 20.7 mph - -  
12:00 AM 55.4 °F 51.8 °F 88% 30.23 in 9.0 mi ENE 5.8 mph - N/A   Scattered Clouds
1:00 AM 53.6 °F 50.0 °F 88% 30.24 in 9.0 mi ENE 6.9 mph - N/A   Scattered Clouds
2:00 AM 51.8 °F 50.0 °F 94% 30.24 in 9.0 mi ENE 4.6 mph - N/A   Partly Cloudy
3:00 AM 50.0 °F 48.2 °F 94% 30.24 in 9.0 mi East 3.5 mph - N/A   Scattered Clouds
4:00 AM 50.0 °F 48.2 °F 94% 30.23 in 9.0 mi NNE 4.6 mph - N/A   Clear
5:00 AM 50.0 °F 48.2 °F 94% 30.23 in 9.0 mi Calm Calm - N/A   Clear
6:00 AM 40 °F 31 °F 59% 29.88 in - South 11.5 mph - -  
6:00 AM 48.2 °F 46.4 °F 93% 30.23 in 9.0 mi East 3.5 mph - N/A   Clear
7:00 AM 48.2 °F 48.2 °F 100% 30.23 in 30.0 mi East 5.8 mph - N/A   Partly Cloudy
8:00 AM 51.8 °F 48.2 °F 88% 30.23 in 30.0 mi ENE 5.8 mph - N/A   Scattered Clouds
9:00 AM 57.2 °F 50.0 °F 77% 30.23 in 30.0 mi NE 3.5 mph - N/A   Scattered Clouds
10:00 AM 60.8 °F 51.8 °F 72% 30.22 in 30.0 mi Variable 2.3 mph - N/A   Partly Cloudy
11:00 AM 66.2 °F 51.8 °F 60% 30.21 in 30.0 mi Variable 2.3 mph - N/A   Scattered Clouds
12:00 PM 32 °F 32 °F 99% 29.89 in - North 5.8 mph - -  
12:00 PM 68.0 °F 50.0 °F 52% 30.19 in 30.0 mi NNE 2.3 mph - N/A   Mostly Cloudy
1:00 PM 69.8 °F 50.0 °F 49% 30.18 in 30.0 mi Variable 2.3 mph - N/A   Scattered Clouds
2:00 PM 71.6 °F 50.0 °F 46% 30.16 in 30.0 mi Variable 2.3 mph - N/A   Scattered Clouds
3:00 PM 77.0 °F 50.0 °F 39% 30.14 in 30.0 mi SE 6.9 mph - N/A   Scattered Clouds
4:00 PM 77.0 °F 50.0 °F 39% 30.13 in 30.0 mi South 5.8 mph - N/A   Mostly Cloudy
5:00 PM 77.0 °F 50.0 °F 39% 30.10 in 30.0 mi NNW 4.6 mph - N/A   Mostly Cloudy
6:00 PM 34 °F 34 °F 100% 29.95 in - SE 3.5 mph - -  
6:00 PM 75.2 °F 50.0 °F 41% 30.09 in 30.0 mi South 4.6 mph - N/A   Mostly Cloudy
7:00 PM 75.2 °F 50.0 °F 41% 30.08 in 30.0 mi North 6.9 mph - N/A   Mostly Cloudy
8:00 PM 73.4 °F 51.8 °F 47% 30.08 in 30.0 mi NNE 8.1 mph - N/A   Mostly Cloudy
9:00 PM 71.6 °F 51.8 °F 50% 30.08 in 30.0 mi NE 8.1 mph - N/A   Mostly Cloudy
10:00 PM 68.0 °F 51.8 °F 56% 30.08 in 9.0 mi ENE 8.1 mph - N/A   Clear
11:00 PM 64.4 °F 53.6 °F 68% 30.08 in 9.0 mi East 9.2 mph - N/A   Clear